{"data":{"norad_id":59240,"intl_designator":"2024-049K","name":"STARLINK-31408","alt_names":[],"object_type":"PAYLOAD","status":"ACTIVE","operator":null,"country":"US","launch_date":"2024-03-16","launch_site_code":"AFETR","launch_vehicle":null,"mission":null,"orbit_class":"UNKNOWN","rcs_meters":null,"size_class":null,"mass_kg":null,"dimensions":null,"purposes":["comms"],"wikipedia_slug":null,"has_3d_model":false,"image_url":null,"decayed_at":null,"tle_current":{"epoch":"2026-05-25T04:44:46.348224Z","epoch_age_seconds":53986,"freshness":"FRESH","line1":"1 59240U 24049K   26145.19775866  .00001075  00000+0  48599-4 0  9997","line2":"2 59240  43.0035  71.7485 0001138 273.0396  87.0325 15.27579326124102","mean_motion":15.27579326,"eccentricity":0.0001138,"inclination_deg":43.0035,"raan_deg":71.7485,"arg_perigee_deg":273.0396,"mean_anomaly_deg":87.0325,"bstar":4.8599e-5,"rev_number":12410,"period_min":94.266790306116,"perigee_km":482.27031103146,"apogee_km":483.83191744627,"semimajor_km":6861.1881142389,"source":"CELESTRAK","updated_at":"2026-05-25T13:38:18.870875Z"}}}